Regional Weather Roundup
Issued by NWS

Home | Current Version | Previous Version | Graphics & Text | Print | Product List | Glossary Off
Versions: 1 2 3 4 5 6 7 8 9 10 11 12 13 14 15 16 17 18 19 20 21 22 23 24 25 26 27 28 29 30 31 32 33 34 35 36 37 38 39 40 41 42 43 44 45 46 47 48 49 50

000
ASUS43 KMKX 271021
RWRWI

WISCONSIN REGIONAL WEATHER ROUNDUP
NATIONAL WEATHER SERVICE MILWAUKEE/SULLIVAN WI
500 AM CDT MON APR 27 2015

NOTE: "FAIR" INDICATES FEW OR NO CLOUDS BELOW 12,000 FEET WITH NO
SIGNIFICANT WEATHER AND/OR OBSTRUCTIONS TO VISIBILITY.

WIZ001-002-006>008-014>016-023>028-271100-
NORTHWEST WISCONSIN

CITY           SKY/WX    TMP DP  RH WIND       PRES   REMARKS
SUPERIOR ARPT  CLEAR     27  25  93 CALM      30.22R
ASHLAND        CLEAR     27  26  96 SW5       30.20S WCI  22
HAYWARD        CLEAR     29  25  85 CALM      30.20R
SIREN          CLEAR     29  24  81 CALM      30.22R
CUMBERLAND     CLEAR     32  27  80 N3        30.19S
RICE LAKE      CLEAR     32  27  80 CALM      30.21R
CHETEK         CLEAR     33  28  83 NW3       30.19S
LADYSMITH      CLEAR     33  27  77 NW3       30.20R
EAU CLAIRE     CLEAR     34  24  67 N3        30.18R
MENOMONIE      CLEAR     36  28  70 CALM      30.19S
NEW RICHMOND   CLEAR     32  27  81 N3        30.20S
OSCEOLA        CLEAR     32  27  83 CALM      30.23S
$$

WIZ003>005-009-010-017-018-271100-
NORTH CENTRAL WISCONSIN

CITY           SKY/WX    TMP DP  RH WIND       PRES   REMARKS
MANITOWISH WTR CLEAR     31  27  86 N5        30.15R WCI  26
ARBOR VITAE    CLEAR     32  28  87 CALM      30.14S
WOODRUFF       CLEAR     32  28  87 CALM      30.14S
RHINELANDER    CLEAR     33  26  75 NW3       30.13S
EAGLE RIVER    CLEAR     28  26  93 CALM      30.13R
LAND O LAKES   CLEAR     27  25  93 CALM      30.14S
PHILLIPS       CLEAR     30  26  88 CALM      30.16R
TOMAHAWK       CLEAR     30  27  88 CALM      30.15S
MEDFORD        CLEAR     31  27  84 NW5       30.15R WCI  26
MERRILL        CLEAR     30  28  92 CALM      30.14R
$$

WIZ029-030-035-036-043>047-271100-
CENTRAL WISCONSIN

CITY           SKY/WX    TMP DP  RH WIND       PRES   REMARKS
WAUSAU         CLEAR     37  31  78 NW6       30.12S WCI  32
MOSINEE        CLEAR     36  32  87 NW6       30.14S WCI  31
MARSHFIELD     CLEAR     34  28  79 W5        30.15R WCI  30
STEVENS POINT  CLEAR     30  26  83 CALM      30.13S
WAUPACA        CLEAR     34  31  87 NW3       30.12F
WAUTOMA        CLEAR     31  28  88 CALM      30.13S
WISC RAPIDS    CLEAR     33  27  78 CALM      30.15R
CAMP DOUGLAS   CLEAR     30  29  99 CALM      30.13S
$$

WIZ011>013-019>022-031-037>040-048>050-271100-
NORTHEAST WISCONSIN

CITY           SKY/WX    TMP DP  RH WIND       PRES   REMARKS
ANTIGO         CLEAR     33  28  81 N3        30.11F
SHAWANO        CLEAR     35  29  79 CALM      30.11F
OCONTO         CLEAR     38  29  70 NW3       30.10S
STURGEON BAY   CLEAR     37  28  70 N8        30.11S WCI  31
GREEN BAY      CLEAR     37  30  75 NW7       30.10S WCI  32
MANITOWOC      CLEAR     39  31  72 NW7       30.08F WCI  34
APPLETON       CLEAR     37  28  70 N9        30.10F WCI  31
CLINTONVILLE   CLEAR     34  30  86 CALM      30.11S
OSHKOSH        CLEAR     40  30  67 NW7       30.10S
$$

WIZ032>034-041-042-053>061-271100-
SOUTHWEST WISCONSIN

CITY           SKY/WX    TMP DP  RH WIND       PRES   REMARKS
LA CROSSE      CLEAR     40  31  70 N3        30.14F
SPARTA         CLEAR     29  26  88 CALM      30.15F
VIROQUA        CLEAR     39  28  64 CALM      30.13S
BOSCOBEL       CLEAR     32  28  85 CALM      30.14S
PRAIRIE DU CHI CLEAR     35  30  82 CALM      30.13S
PLATTEVILLE    CLEAR     35  29  79 N5        30.11R WCI  30
$$

WIZ056-057-062-063-064-067-068-271100-
SOUTH CENTRAL WISCONSIN

CITY           SKY/WX    TMP DP  RH WIND       PRES   REMARKS
REEDSBURG      CLEAR     35  30  82 CALM      30.13R
BARABOO/DELLS  CLEAR     34  28  80 CALM      30.12S
LONE ROCK      CLEAR     33  29  85 CALM      30.12F
MINERAL POINT  CLEAR     34  30  86 CALM      30.11R
MADISON        CLEAR     32  28  85 N5        30.10F WCI  27
MIDDLETON      CLEAR     33  30  88 CALM      30.11S
WATERTOWN      CLEAR     35  32  90 NW5       30.09S WCI  31
MONROE         CLEAR     37  30  75 N6        30.09S WCI  33
JANESVILLE     CLEAR     32  28  86 NW3       30.08F
$$

WIZ051-052-058>065-066-070>072-271100-
SOUTHEAST WISCONSIN

CITY           SKY/WX    TMP DP  RH WIND       PRES   REMARKS
MILWAUKEE      CLEAR     40  28  62 N7        30.07F
WAUKESHA       CLEAR     34  30  86 NW5       30.09S WCI  30
MILWAUKEE/TIMM CLEAR     36  28  75 N8        30.08F WCI  29
RACINE         CLEAR     38  29  70 NW7       30.08F WCI  33
BURLINGTON     CLEAR     33  28  84 N6        30.07S WCI  27
KENOSHA        CLEAR     38  30  73 N7        30.06F WCI  33
FOND DU LAC    CLEAR     36  30  79 W7        30.10S WCI  30
SHEBOYGAN      CLEAR     38  30  73 NW8       30.08S WCI  32
WEST BEND      CLEAR     36  28  75 N5        30.08F WCI  32
JUNEAU         CLEAR     35  30  82 NW6       30.11S WCI  30
$$

LSZ147-162-271100-
LAKE SUPERIOR

STATION/POSITION TIME  TEMP    WIND        PRES    WAVE
                       AIR SEA DIR/SP/G            HT/PER
                 (UTC) (F)     (DEG/KT/KT) (MB)    (FT/S)
W MID LAKE BUOY  0950   38 35  320/  8/  8 1023.3R   0
DEVILS ISLAND    1000   36     240/  8/  9 1023.2R
PORT WING        0900   29     150/  2/  3 1022.7S
SAXON HARBOR     0900   30     200/  2/  5 1022.0R
$$

LMZ867-665-643>646-271100-
LAKE MICHIGAN

STATION/POSITION TIME  TEMP    WIND        PRES    WAVE
                       AIR SEA DIR/SP/G            HT/PER
                 (UTC) (F)     (DEG/KT/KT) (MB)    (FT/S)
CHAMBERS ISLAND  0900   39     310/  6/  8 1019.3R
NORTHPORT PIER   0900   41     310/ 10/ 12 1018.6S
SISTER BAY       0947   39      10/ 10/ 11   N/A
KEWAUNEE LAKESHO 0900   39     320/  3/  7 1018.1R
SHEBOYGAN LAKESH 1000   43     330/ 11/ 14 1019.2F
PORT WASHINGTON  0900   42     320/  6/  9 1019.3S
MILWAUKEE LAKESH 1000   42     340/ 11/ 13   N/A
KENOSHA   LAKESH 1000   41     340/ 12/ 15 1017.6F
$$

TC  - TEMPERATURE IN CELSIUS
VSB - VISIBILITY IN STATUTE MILES
WCI - WIND CHILL INDEX
HX  - HEAT INDEX




USA.gov is the U.S. government's official web portal to all federal, state and local government web resources and services.